Temperature
-2 -2 -2 -2 -3 -3 -3 -3 -3 -3 -3 -3 -3 -3 -3 -3 -4 -4 -4 -4 -4 -4 -4 -4 -4 -4 -4 -4 -4 -5 -5 -5 -5 -4 -4 -4 -3 -3 -3 -2 -2 -2 -2
-2 -3 -3 -3 -3 -3 -3 -3 -3 -4 -4 -4 -4 -4 -4 -4 -4 -4 -4 -4 -5 -5 -5 -5 -5 -5 -5 -5 -5 -5 -5 -5 -5 -5 -5 -4 -4 -4 -3 -3 -3 -3 -3
-3 -3 -3 -3 -4 -4 -4 -4 -4 -4 -4 -4 -4 -4 -5 -5 -5 -5 -5 -5 -5 -5 -5 -5 -5 -5 -5 -5 -5 -5 -5 -5 -5 -6 -5 -5 -5 -4 -4 -4 -3 -3 -3
-4 -4 -4 -4 -4 -4 -4 -5 -5 -5 -5 -5 -5 -5 -5 -5 -5 -5 -6 -6 -6 -6 -6 -6 -6 -6 -6 -6 -6 -6 -6 -6 -6 -6 -6 -6 -5 -5 -5 -4 -4 -3 -3
-4 -4 -4 -4 -5 -5 -5 -5 -5 -5 -5 -6 -6 -6 -6 -6 -6 -6 -6 -7 -6 -6 -6 -6 -6 -6 -6 -6 -6 -6 -6 -6 -6 -6 -6 -6 -6 -6 -5 -5 -5 -4 -4
-5 -5 -5 -5 -5 -5 -6 -6 -6 -6 -6 -6 -6 -6 -6 -7 -7 -7 -7 -7 -7 -7 -7 -7 -7 -7 -7 -7 -7 -7 -6 -6 -6 -6 -6 -6 -6 -6 -6 -6 -6 -6 -5
-5 -6 -6 -6 -6 -6 -6 -6 -6 -6 -6 -7 -7 -7 -7 -7 -7 -7 -7 -7 -7 -7 -7 -7 -7 -7 -7 -7 -7 -7 -7 -7 -7 -7 -7 -7 -7 -6 -6 -6 -6 -6 -6
-6 -6 -7 -7 -7 -7 -7 -7 -7 -7 -7 -7 -7 -7 -7 -7 -7 -8 -8 -8 -8 -8 -8 -8 -8 -8 -8 -8 -7 -7 -7 -7 -7 -7 -7 -7 -7 -7 -7 -7 -7 -7 -6
-7 -7 -7 -7 -7 -7 -7 -7 -8 -8 -8 -8 -8 -8 -8 -8 -8 -8 -8 -8 -8 -8 -8 -8 -8 -8 -8 -8 -8 -8 -8 -7 -7 -8 -7 -7 -7 -7 -7 -7 -7 -7 -7
-7 -7 -8 -8 -8 -8 -8 -8 -8 -8 -8 -9 -8 -8 -8 -8 -8 -8 -8 -9 -9 -8 -8 -8 -8 -8 -8 -8 -8 -8 -8 -8 -8 -8 -8 -7 -7 -7 -7 -8 -8 -8 -8
-8 -8 -8 -8 -8 -8 -8 -9 -9 -9 -9 -9 -9 -9 -9 -9 -9 -9 -9 -9 -9 -9 -9 -9 -8 -9 -9 -9 -8 -9 -9 -9 -9 -8 -8 -8 -8 -8 -8 -8 -8 -8 -9
-8 -8 -8 -8 -9 -9 -9 -9 -9 -9 -9 -9 -9 -9 -9 -9 -9 -9 -9 -9 -9 -9 -9 -9 -9 -9 -9 -9 -9 -9 -9 -9 -9 -9 -9 -9 -9 -9 -9 -9 -9 -9 -9
-9 -9 -9 -9 -9 -9 -9 -9 -9 -10 -10 -10 -10 -10 -9 -9 -10 -10 -10 -10 -10 -10 -10 -10 -9 -10 -10 -9 -9 -10 -10 -10 -10 -10 -10 -9 -9 -9 -9 -9 -9 -9 -9
-9 -9 -9 -9 -9 -9 -10 -10 -10 -10 -10 -10 -10 -10 -10 -10 -10 -10 -10 -10 -10 -10 -10 -10 -10 -10 -10 -10 -10 -10 -10 -10 -10 -10 -10 -10 -10 -10 -10 -10 -10 -10 -10
-10 -10 -10 -10 -10 -10 -10 -10 -10 -10 -11 -11 -10 -10 -10 -10 -10 -10 -10 -10 -10 -10 -10 -10 -10 -10 -10 -10 -11 -11 -11 -11 -11 -11 -11 -11 -10 -10 -10 -10 -10 -10 -10
-10 -10 -10 -10 -10 -10 -10 -10 -10 -11 -11 -11 -11 -11 -11 -11 -11 -11 -11 -11 -11 -11 -11 -11 -11 -11 -11 -11 -11 -11 -11 -11 -11 -11 -11 -11 -11 -11 -11 -11 -11 -11 -11
-11 -10 -11 -11 -11 -11 -11 -11 -11 -10 -11 -11 -11 -11 -11 -11 -11 -11 -11 -11 -11 -11 -11 -11 -11 -11 -11 -12 -12 -12 -12 -12 -12 -12 -12 -12 -12 -11 -11 -11 -11 -11 -11
-11 -11 -11 -11 -11 -11 -11 -11 -11 -11 -11 -11 -11 -11 -11 -11 -11 -12 -12 -12 -11 -11 -12 -12 -12 -12 -12 -12 -12 -12 -12 -12 -12 -12 -12 -12 -12 -12 -12 -12 -12 -12 -12
-11 -11 -11 -11 -11 -11 -11 -11 -12 -12 -12 -12 -12 -12 -12 -12 -12 -12 -12 -12 -12 -12 -12 -12 -12 -12 -12 -12 -12 -12 -12 -13 -13 -13 -12 -12 -12 -12 -12 -12 -12 -12 -12
-12 -11 -12 -12 -12 -12 -12 -12 -12 -12 -12 -12 -12 -12 -12 -12 -12 -12 -12 -12 -12 -12 -13 -13 -13 -13 -13 -13 -13 -13 -13 -13 -13 -13 -13 -13 -13 -13 -12 -12 -12 -12 -12
-12 -12 -12 -12 -12 -12 -12 -12 -12 -12 -12 -13 -13 -13 -13 -13 -13 -13 -13 -13 -13 -13 -13 -13 -13 -13 -13 -13 -13 -13 -13 -13 -13 -13 -13 -13 -13 -13 -13 -13 -13 -13 -12
-12 -12 -12 -12 -12 -12 -12 -12 -12 -12 -13 -13 -13 -13 -13 -13 -13 -13 -13 -13 -13 -13 -13 -13 -13 -13 -13 -13 -13 -13 -13 -13 -13 -13 -13 -13 -13 -13 -13 -13 -13 -13 -13
-12 -12 -12 -12 -12 -12 -13 -13 -13 -13 -13 -13 -13 -13 -13 -13 -13 -13 -13 -13 -13 -13 -13 -13 -13 -13 -13 -13 -13 -13 -13 -13 -13 -13 -13 -13 -13 -13 -13 -13 -13 -13 -13
-13 -13 -13 -13 -13 -13 -13 -13 -13 -13 -13 -13 -13 -13 -13 -13 -13 -13 -13 -13 -13 -13 -13 -13 -13 -13 -13 -13 -13 -13 -13 -13 -13 -13 -13 -13 -13 -13 -13 -13 -13 -13 -13
-13 -13 -13 -13 -13 -13 -13 -13 -13 -13 -13 -13 -13 -14 -14 -14 -14 -14 -14 -14 -14 -13 -13 -14 -14 -14 -14 -14 -14 -13 -13 -13 -13 -13 -14 -14 -13 -13 -13 -13 -13 -13 -13
-13 -13 -13 -13 -13 -13 -13 -13 -13 -13 -14 -14 -14 -14 -14 -14 -14 -14 -14 -14 -14 -14 -14 -14 -14 -14 -14 -14 -14 -14 -13 -13 -13 -13 -14 -14 -14 -13 -13 -13 -13 -13 -13
Wind_Speed
3 3 2 2 2 2 2 3 2 2 2 3 3 3 3 3 3 2 3 3 4 4 4 4 5 4 4 4 4 4 5 5 8 7 6 6 6 7 9 11 11 10 10
3 3 2 2 2 2 2 3 2 2 3 3 3 3 3 3 3 3 4 4 4 5 5 5 6 5 5 5 4 5 5 6 7 9 7 6 7 7 7 7 9 9 9
2 2 2 2 2 2 3 2 2 2 3 3 3 3 4 4 4 5 5 5 5 6 6 6 6 6 6 6 6 6 6 6 6 7 8 7 6 6 6 7 8 7 9
2 2 2 2 2 2 2 2 3 3 3 3 3 4 5 5 5 6 5 6 6 6 6 6 6 7 7 7 7 7 6 6 6 7 7 7 6 5 5 6 7 5 6
1 1 2 2 2 2 2 3 3 3 3 3 4 4 5 5 6 6 6 6 6 6 6 6 7 9 10 8 7 6 6 6 6 7 7 6 6 5 5 5 7 7 6
1 1 1 1 1 2 2 3 3 3 3 3 4 5 5 6 9 10 8 6 5 5 6 6 7 8 9 11 11 11 10 8 7 7 6 7 7 6 5 6 7 7 7
1 1 2 2 2 3 3 3 3 3 3 4 4 5 5 8 11 11 10 6 4 5 6 6 6 7 9 7 10 12 11 13 12 9 8 8 8 7 7 8 7 7 8
2 2 2 2 3 3 3 3 4 3 4 4 5 5 6 8 10 11 10 4 4 6 6 6 7 7 8 9 8 7 8 8 10 8 7 8 8 7 7 7 7 7 7
2 3 3 3 3 3 4 4 4 3 4 5 5 5 5 7 11 11 10 4 5 6 7 7 7 7 11 12 7 7 8 8 10 12 12 11 12 11 9 5 5 5 7
3 3 3 3 4 4 5 4 4 4 5 5 5 5 6 7 11 11 10 4 5 5 6 7 9 10 11 11 6 6 8 8 7 8 8 9 8 8 9 6 5 6 6
3 3 3 4 4 4 4 3 3 4 4 4 6 6 6 7 9 11 10 5 5 6 6 5 6 11 12 11 9 6 9 8 5 5 6 5 5 4 5 5 5 5 6
3 3 4 3 3 3 3 3 3 3 4 5 5 5 5 6 8 9 11 10 8 5 6 5 7 11 12 11 8 8 11 8 4 4 5 5 4 5 4 5 6 6 7
3 4 4 4 3 3 3 4 3 3 3 4 4 5 5 5 6 10 11 11 11 7 6 9 11 11 9 7 8 10 7 4 4 4 5 5 5 5 5 5 5 5 6
3 4 4 3 4 3 3 3 3 4 4 5 5 5 5 5 5 5 6 7 8 7 6 8 9 8 6 7 6 5 3 4 4 4 5 5 5 4 4 4 5 4 5
3 4 4 4 4 4 4 4 5 5 6 6 5 5 5 6 7 10 7 5 5 5 4 2 2 3 3 3 3 3 3 3 4 4 4 4 5 5 4 4 4 4 5
3 4 3 3 3 3 3 4 7 7 9 9 9 8 6 8 11 11 10 10 9 7 4 2 3 3 4 4 4 4 3 4 4 4 4 4 5 5 5 4 4 4 5
4 4 4 4 3 3 3 3 4 6 7 8 8 9 9 10 10 10 10 9 8 6 2 3 3 4 4 4 4 4 5 4 4 4 4 4 5 5 5 5 4 4 5
4 5 5 4 4 4 4 4 4 4 5 5 6 8 9 9 9 9 9 6 4 3 2 3 4 4 4 4 4 5 5 4 4 4 4 4 4 5 5 5 5 5 6
4 3 4 4 3 3 3 3 4 4 4 5 5 6 8 8 8 8 7 3 3 3 3 3 4 4 4 4 4 4 4 5 5 4 5 5 4 4 5 5 5 8 7
3 6 5 3 3 3 3 3 3 4 4 4 5 5 5 5 4 4 4 3 3 4 4 4 4 4 4 4 5 4 5 4 4 4 5 5 5 5 6 6 6 6 6
3 4 6 4 3 3 3 3 3 3 4 4 5 6 8 4 4 4 4 4 4 4 4 4 4 4 4 4 4 5 5 5 4 5 5 5 5 5 6 6 6 6 6
3 3 3 3 3 3 4 3 3 4 4 5 5 6 9 5 4 4 4 4 4 4 4 4 4 4 5 5 5 5 5 5 5 5 5 6 6 6 6 6 6 6 6
2 3 3 3 3 4 4 3 3 4 4 4 5 5 4 4 4 5 5 5 4 5 5 4 4 5 6 7 7 6 6 6 6 6 6 6 6 6 6 7 7 7 7
2 3 3 3 3 3 3 4 4 4 4 4 4 5 4 4 5 5 5 5 5 5 6 5 6 7 8 8 8 8 9 10 10 9 9 8 7 7 7 7 7 8 8
2 3 3 3 3 3 4 4 4 4 4 4 5 5 5 5 5 5 5 5 6 6 7 7 7 8 9 11 11 10 12 14 13 11 9 8 8 8 8 7 7 7 7
2 3 3 3 3 4 4 4 4 4 4 5 5 5 5 5 5 5 5 5 5 6 7 7 9 10 11 11 12 13 14 14 14 14 10 7 7 7 7 6 8 7 7
Wind_Direction
180 177 181 190 191 190 214 225 233 255 268 271 277 282 283 286 282 270 269 268 267 275 280 279 280 281 279 276 275 273 270 266 272 282 281 291 289 293 302 301 299 299 298
176 170 182 187 186 204 229 239 239 247 262 266 271 273 279 284 281 263 264 267 261 267 273 276 281 283 281 279 275 273 272 268 266 278 285 289 286 289 292 294 300 299 296
158 166 177 192 204 221 237 251 250 247 258 269 269 266 271 274 271 267 256 257 257 260 264 265 271 274 277 277 274 272 271 273 267 270 279 282 284 290 293 293 292 290 294
147 173 195 209 220 231 243 252 253 250 253 259 266 267 268 272 271 269 268 263 260 264 264 263 264 263 267 269 271 268 268 269 269 269 272 277 277 278 278 290 296 288 291
160 197 227 228 224 241 251 255 260 260 263 263 268 272 277 273 264 260 258 261 258 261 266 266 266 270 274 274 275 272 269 267 271 266 269 274 274 281 277 284 287 292 285
187 234 250 237 240 251 256 259 265 267 270 271 268 270 275 276 277 277 273 263 260 260 267 272 274 276 283 289 290 289 285 280 277 267 266 270 274 276 276 279 281 288 288
226 249 254 254 261 265 266 265 264 265 264 268 267 266 269 274 280 281 280 277 257 265 267 271 277 279 288 280 285 291 290 289 287 283 273 271 274 271 271 273 271 275 278
241 254 257 256 263 270 266 264 264 264 262 264 268 264 268 275 283 285 286 280 262 266 269 266 268 273 276 277 275 279 278 279 284 282 268 271 271 268 262 268 272 279 284
251 257 260 262 264 266 264 265 270 266 268 264 263 260 264 278 286 286 288 271 271 269 272 269 269 265 277 285 285 281 286 288 292 287 285 285 289 287 283 276 273 275 283
260 261 265 263 261 259 260 265 269 265 267 272 276 269 266 272 283 287 290 269 274 274 272 272 278 280 283 289 281 272 279 285 290 295 295 296 295 294 290 278 267 267 280
278 275 273 267 265 262 259 261 262 268 275 274 277 277 270 273 283 289 291 282 270 273 276 276 276 286 291 292 291 276 279 291 290 288 289 291 291 286 285 285 276 265 268
287 286 279 275 273 274 258 264 263 260 267 273 277 282 275 273 283 284 288 289 287 275 275 275 275 287 292 295 293 290 296 302 294 290 289 289 291 290 290 289 290 283 272
291 287 286 284 280 275 256 259 265 255 260 272 272 278 283 280 278 287 288 289 289 284 276 282 289 295 298 296 293 297 302 299 291 288 286 288 289 288 292 293 292 295 294
283 286 286 282 281 278 270 261 259 259 262 271 272 273 279 281 279 278 273 276 281 282 281 284 292 298 302 298 298 300 293 277 279 280 284 288 293 290 289 289 289 291 292
285 282 283 278 274 276 274 263 264 254 253 264 263 264 272 277 281 287 286 279 273 272 284 276 287 294 295 294 290 284 282 284 284 283 287 292 294 294 293 295 288 289 281
281 285 281 275 273 276 280 290 284 283 286 288 290 291 288 292 302 306 307 307 305 300 297 277 280 279 277 282 287 288 284 283 284 286 287 288 291 293 294 296 290 283 282
271 280 279 275 274 275 277 283 297 304 300 300 300 302 304 307 310 311 311 310 311 315 301 279 274 275 275 277 279 281 283 282 282 281 281 284 287 290 292 290 287 284 282
276 279 279 271 269 268 271 275 278 288 301 306 306 306 309 312 313 315 317 321 315 317 285 275 275 278 279 278 276 276 280 283 280 277 278 279 279 283 287 285 284 278 280
274 275 275 273 272 271 273 275 276 280 285 296 305 308 312 314 315 316 322 317 299 299 294 285 282 284 286 285 281 278 278 279 278 278 277 275 275 275 277 278 278 282 282
272 281 285 283 280 278 274 272 277 281 286 290 293 298 307 312 310 314 315 304 294 290 287 285 285 284 285 284 284 284 283 280 280 281 281 278 276 272 271 272 272 275 274
272 280 286 290 280 275 274 272 273 276 279 284 288 292 300 302 297 298 299 296 292 285 282 283 285 284 281 280 280 280 278 278 278 277 278 277 275 275 273 271 269 269 272
264 272 275 276 280 278 276 272 273 274 277 283 291 298 305 311 305 298 296 294 292 286 278 278 280 276 271 269 271 274 276 278 278 276 275 276 275 274 274 271 272 272 270
261 268 276 279 279 283 290 284 275 274 278 282 288 294 300 299 297 296 295 296 295 292 284 276 278 279 273 269 264 261 265 269 269 268 270 273 273 273 271 268 269 271 270
255 260 267 274 277 276 278 281 279 278 281 285 289 290 291 293 294 295 297 299 297 294 286 279 274 274 277 278 276 269 265 266 265 262 259 262 267 271 269 268 269 269 270
255 263 268 268 270 272 276 278 280 281 283 285 286 287 290 291 291 293 295 295 297 296 294 287 279 277 278 279 279 278 280 282 280 271 259 256 260 263 265 266 269 272 272
266 269 270 271 270 271 273 276 279 282 284 285 286 286 287 288 289 290 292 293 297 296 295 292 285 284 284 283 284 286 288 287 287 284 274 260 259 265 266 266 270 270 274
Height
1479 1480 1481 1482 1483 1484 1484 1484 1484 1484 1484 1483 1483 1483 1482 1482 1481 1481 1480 1480 1479 1479 1478 1477 1477 1477 1476 1476 1476 1475 1474 1474 1471 1469 1469 1469 1468 1467 1466 1465 1464 1463 1463
1475 1476 1478 1478 1479 1480 1480 1480 1480 1480 1479 1479 1479 1478 1478 1477 1477 1476 1476 1475 1475 1474 1473 1473 1472 1472 1472 1471 1471 1470 1469 1469 1467 1464 1464 1464 1463 1462 1461 1460 1459 1458 1458
1472 1473 1474 1474 1475 1475 1475 1476 1475 1475 1475 1475 1474 1474 1473 1473 1472 1472 1471 1470 1470 1469 1469 1468 1468 1468 1467 1466 1466 1465 1464 1464 1462 1461 1459 1458 1457 1457 1456 1455 1454 1453 1452
1469 1469 1470 1470 1471 1471 1471 1471 1471 1471 1471 1470 1470 1469 1469 1468 1468 1467 1467 1466 1465 1465 1465 1464 1463 1463 1462 1461 1460 1460 1459 1458 1457 1455 1453 1452 1451 1451 1451 1449 1448 1447 1447
1465 1466 1466 1467 1467 1467 1467 1467 1466 1466 1466 1466 1465 1464 1464 1463 1463 1463 1462 1461 1461 1460 1460 1459 1459 1458 1457 1457 1456 1455 1454 1453 1451 1449 1447 1446 1446 1446 1445 1444 1443 1441 1440
1462 1463 1463 1463 1463 1463 1463 1462 1462 1462 1461 1461 1460 1460 1459 1459 1459 1459 1458 1457 1456 1456 1455 1454 1454 1453 1452 1452 1451 1450 1450 1448 1446 1444 1442 1441 1440 1440 1440 1439 1438 1436 1434
1459 1459 1459 1459 1459 1459 1458 1458 1457 1457 1456 1456 1455 1455 1454 1454 1454 1454 1454 1454 1452 1451 1450 1449 1449 1448 1447 1446 1445 1445 1444 1443 1442 1440 1438 1436 1435 1435 1434 1433 1433 1431 1430
1456 1456 1456 1456 1455 1455 1454 1454 1453 1452 1452 1451 1450 1450 1449 1449 1450 1449 1449 1448 1447 1446 1445 1445 1444 1443 1442 1441 1440 1439 1438 1436 1435 1434 1433 1431 1431 1430 1430 1429 1427 1426 1424
1453 1453 1452 1452 1451 1451 1450 1449 1449 1448 1447 1446 1446 1445 1445 1444 1445 1445 1445 1443 1442 1441 1441 1440 1439 1438 1437 1437 1435 1434 1432 1430 1429 1428 1427 1426 1425 1424 1424 1423 1421 1420 1418
1449 1449 1449 1448 1447 1446 1446 1445 1444 1443 1443 1442 1441 1441 1440 1440 1440 1440 1440 1439 1437 1436 1436 1435 1434 1433 1433 1432 1431 1429 1426 1425 1424 1422 1421 1419 1419 1418 1418 1418 1416 1415 1413
1446 1445 1445 1444 1443 1443 1442 1441 1440 1439 1438 1438 1437 1436 1436 1435 1435 1435 1435 1434 1433 1432 1431 1429 1429 1428 1428 1427 1426 1424 1422 1421 1419 1417 1415 1414 1413 1412 1411 1411 1410 1410 1408
1442 1441 1441 1440 1440 1439 1438 1437 1436 1435 1434 1433 1432 1431 1431 1431 1430 1430 1430 1430 1429 1427 1426 1425 1424 1423 1423 1421 1420 1418 1418 1416 1414 1412 1410 1408 1407 1406 1406 1405 1404 1403 1403
1438 1438 1437 1437 1436 1435 1434 1433 1432 1431 1430 1429 1428 1427 1426 1426 1426 1425 1425 1424 1423 1423 1421 1420 1419 1418 1417 1416 1414 1413 1412 1410 1409 1407 1405 1404 1402 1402 1401 1399 1398 1398 1397
1434 1434 1433 1433 1432 1431 1430 1430 1429 1428 1427 1426 1425 1424 1423 1422 1421 1421 1420 1419 1418 1417 1416 1415 1414 1413 1412 1410 1409 1408 1406 1405 1404 1403 1401 1399 1398 1397 1396 1394 1393 1392 1391
1431 1430 1429 1429 1428 1427 1427 1426 1425 1425 1424 1423 1422 1421 1419 1418 1417 1417 1416 1415 1413 1412 1411 1410 1409 1407 1406 1405 1404 1403 1402 1401 1400 1398 1397 1395 1394 1392 1391 1390 1389 1387 1386
1427 1426 1426 1425 1424 1424 1423 1422 1421 1421 1420 1419 1418 1418 1416 1415 1414 1413 1412 1410 1409 1408 1407 1405 1404 1403 1402 1400 1399 1398 1397 1396 1395 1394 1392 1391 1389 1388 1386 1385 1384 1383 1381
1424 1423 1422 1422 1421 1420 1419 1418 1417 1416 1416 1415 1414 1413 1412 1411 1409 1408 1407 1406 1405 1403 1402 1400 1399 1398 1397 1396 1395 1394 1392 1391 1390 1389 1388 1386 1385 1384 1382 1381 1379 1378 1376
1421 1420 1419 1419 1418 1417 1416 1415 1414 1412 1411 1410 1410 1409 1407 1406 1405 1404 1403 1401 1399 1398 1397 1396 1395 1394 1393 1392 1390 1389 1388 1387 1386 1384 1383 1382 1380 1379 1377 1376 1374 1373 1371
1418 1417 1416 1416 1415 1414 1413 1412 1411 1409 1408 1406 1405 1405 1404 1402 1401 1400 1399 1397 1395 1394 1393 1392 1390 1389 1388 1387 1386 1384 1383 1382 1381 1379 1378 1376 1375 1374 1372 1371 1369 1368 1367
1415 1414 1413 1413 1412 1411 1410 1408 1407 1406 1405 1403 1402 1401 1400 1398 1397 1396 1395 1393 1392 1390 1389 1387 1386 1385 1384 1383 1381 1380 1378 1377 1376 1374 1373 1371 1370 1369 1367 1366 1364 1363 1361
1411 1411 1410 1410 1408 1407 1406 1405 1404 1403 1401 1400 1399 1398 1397 1396 1394 1392 1391 1390 1388 1387 1385 1383 1382 1381 1380 1378 1377 1375 1373 1372 1371 1369 1368 1367 1365 1363 1362 1361 1359 1358 1356
1408 1408 1407 1406 1405 1404 1403 1402 1401 1400 1398 1397 1396 1395 1394 1392 1390 1389 1387 1386 1385 1383 1381 1380 1378 1377 1376 1374 1372 1370 1368 1367 1366 1365 1363 1362 1360 1358 1357 1355 1354 1353 1351
1405 1404 1404 1403 1402 1401 1400 1399 1398 1396 1395 1394 1393 1391 1390 1389 1387 1386 1384 1382 1381 1379 1378 1376 1374 1372 1371 1369 1367 1366 1364 1363 1361 1360 1358 1356 1355 1353 1351 1350 1349 1347 1346
1402 1401 1400 1399 1399 1398 1397 1396 1394 1393 1392 1391 1389 1388 1386 1385 1384 1382 1380 1379 1377 1375 1374 1372 1370 1368 1366 1365 1363 1361 1360 1358 1357 1355 1353 1351 1350 1348 1346 1345 1343 1342 1340
1399 1398 1397 1396 1395 1394 1393 1392 1391 1390 1389 1387 1386 1384 1383 1381 1380 1378 1377 1375 1373 1371 1369 1367 1366 1364 1362 1360 1358 1356 1354 1353 1351 1350 1348 1346 1345 1343 1342 1340 1338 1337 1336
1396 1395 1394 1393 1392 1391 1390 1389 1388 1386 1385 1384 1382 1381 1379 1378 1376 1375 1373 1371 1369 1367 1365 1363 1361 1360 1358 1356 1354 1352 1350 1348 1347 1345 1344 1342 1340 1339 1337 1335 1333 1332 1331